| time (UTC) | temp F | wind direction | speed MPH | gust MPH | rain 1hr in | rain 24hr in | rain mn in | humidity % | barometer mb |
| 20260504120103 | 50 | 232 | 0.0 | 0.0 | 0.00 | 0.00 | 0.00 | 65 | 1010.3 |
| 20260504110603 | 52 | 232 | 0.0 | 0.0 | 0.00 | 0.00 | 0.00 | 63 | 1010.1 |
| 20260504100104 | 48 | 232 | 2.0 | 3.0 | 0.00 | 0.00 | 0.00 | 73 | 1010.3 |
| 20260504090104 | 47 | 232 | 3.0 | 5.0 | 0.00 | 0.00 | 0.00 | 75 | 1010.7 |
| 20260504081603 | 49 | 233 | 2.0 | 3.0 | 0.00 | 0.00 | 0.00 | 72 | 1010.7 |
| 20260504081103 | 48 | 233 | 2.0 | 3.0 | 0.00 | 0.00 | 0.00 | 71 | 1010.8 |
| 20260504080603 | 48 | 233 | 2.0 | 3.0 | 0.00 | 0.00 | 0.00 | 74 | 1010.7 |
| 20260504070104 | 46 | 233 | 3.0 | 5.0 | 0.00 | 0.00 | 0.00 | 78 | 1011.4 |
| 20260504050603 | 49 | 252 | 2.0 | 3.0 | 0.00 | 0.00 | 0.00 | 75 | 1012.5 |
| 20260504050103 | 50 | 252 | 2.0 | 3.0 | 0.00 | 0.00 | 0.00 | 74 | 1012.2 |
| 20260504045604 | 50 | 253 | 2.0 | 3.0 | 0.00 | 0.00 | 0.00 | 72 | 1012.3 |
| 20260504045103 | 51 | 253 | 2.0 | 3.0 | 0.00 | 0.00 | 0.00 | 71 | 1012.3 |
| 20260504044603 | 52 | 253 | 2.0 | 3.0 | 0.00 | 0.00 | 0.00 | 69 | 1012.1 |
| 20260504044104 | 52 | 258 | 2.0 | 3.0 | 0.00 | 0.00 | 0.00 | 64 | 1012.1 |
| 20260504043603 | 52 | 267 | 0.0 | 3.0 | 0.00 | 0.00 | 0.00 | 68 | 1012.1 |
| 20260504043104 | 52 | 281 | 0.0 | 0.0 | 0.00 | 0.00 | 0.00 | 69 | 1012.1 |
| 20260504042604 | 53 | 281 | 0.0 | 0.0 | 0.00 | 0.00 | 0.00 | 69 | 1012.1 |
| 20260504041603 | 54 | 281 | 0.0 | 0.0 | 0.00 | 0.00 | 0.00 | 66 | 1011.9 |
| 20260504041103 | 55 | 281 | 0.0 | 0.0 | 0.00 | 0.00 | 0.00 | 65 | 1011.9 |
| 20260504040603 | 56 | 281 | 0.0 | 0.0 | 0.00 | 0.00 | 0.00 | 62 | 1012.0 |
| 20260504040103 | 56 | 281 | 0.0 | 0.0 | 0.00 | 0.00 | 0.00 | 58 | 1012.0 |
| 20260504035104 | 58 | 281 | 1.0 | 2.0 | 0.00 | 0.00 | 0.00 | 56 | 1011.7 |
| 20260504034604 | 60 | 281 | 1.0 | 1.0 | 0.00 | 0.00 | 0.00 | 55 | 1011.5 |
| 20260504034103 | 61 | 281 | 1.0 | 2.0 | 0.00 | 0.00 | 0.00 | 51 | 1011.4 |
| 20260504033604 | 61 | 281 | 2.0 | 3.0 | 0.00 | 0.00 | 0.00 | 47 | 1011.4 |
| 20260504033103 | 61 | 281 | 2.0 | 3.0 | 0.00 | 0.00 | 0.00 | 46 | 1011.5 |
| 20260504032603 | 62 | 281 | 2.0 | 3.0 | 0.00 | 0.00 | 0.00 | 47 | 1011.1 |
| 20260504032104 | 62 | 281 | 2.0 | 3.0 | 0.00 | 0.00 | 0.00 | 45 | 1011.1 |
| 20260504031603 | 62 | 281 | 2.0 | 3.0 | 0.00 | 0.00 | 0.00 | 45 | 1011.1 |
| 20260504031104 | 62 | 281 | 2.0 | 3.0 | 0.00 | 0.00 | 0.00 | 45 | 1011.0 |
| 20260504030603 | 63 | 281 | 3.0 | 3.0 | 0.00 | 0.00 | 0.00 | 43 | 1011.0 |
| 20260504025604 | 64 | 281 | 3.0 | 3.0 | 0.00 | 0.00 | 0.00 | 42 | 1010.8 |
| 20260504025103 | 64 | 281 | 3.0 | 5.0 | 0.00 | 0.00 | 0.00 | 42 | 1010.8 |
| 20260504024603 | 65 | 294 | 2.0 | 3.0 | 0.00 | 0.00 | 0.00 | 39 | 1010.7 |
| 20260504024103 | 65 | 294 | 3.0 | 5.0 | 0.00 | 0.00 | 0.00 | 39 | 1010.7 |
| 20260504023603 | 66 | 294 | 3.0 | 5.0 | 0.00 | 0.00 | 0.00 | 40 | 1010.5 |
| 20260504023103 | 66 | 292 | 3.0 | 5.0 | 0.00 | 0.00 | 0.00 | 39 | 1010.5 |
| 20260504022604 | 67 | 288 | 3.0 | 3.0 | 0.00 | 0.00 | 0.00 | 40 | 1010.5 |
| 20260504022103 | 68 | 288 | 2.0 | 3.0 | 0.00 | 0.00 | 0.00 | 39 | 1010.3 |
| 20260504021103 | 68 | 288 | 3.0 | 5.0 | 0.00 | 0.00 | 0.00 | 40 | 1011.4 |
| 20260504020603 | 68 | 293 | 3.0 | 3.0 | 0.00 | 0.00 | 0.00 | 39 | 1011.6 |
| 20260504020103 | 69 | 285 | 2.0 | 3.0 | 0.00 | 0.00 | 0.00 | 38 | 1011.7 |
| 20260504015603 | 69 | 293 | 3.0 | 6.0 | 0.00 | 0.00 | 0.00 | 40 | 1011.7 |
| 20260504015103 | 69 | 307 | 2.0 | 5.0 | 0.00 | 0.00 | 0.00 | 38 | 1011.7 |
| 20260504014603 | 69 | 332 | 2.0 | 5.0 | 0.00 | 0.00 | 0.00 | 36 | 1011.5 |
| 20260504014103 | 70 | 317 | 2.0 | 6.0 | 0.00 | 0.00 | 0.00 | 35 | 1011.6 |
| 20260504013603 | 70 | 335 | 1.0 | 6.0 | 0.00 | 0.00 | 0.00 | 35 | 1011.7 |
| 20260504013103 | 71 | 318 | 4.0 | 9.0 | 0.00 | 0.00 | 0.00 | 34 | 1011.7 |
| 20260504012103 | 71 | 318 | 2.0 | 7.0 | 0.00 | 0.00 | 0.00 | 34 | 1011.8 |
| 20260504011603 | 71 | 318 | 3.0 | 6.0 | 0.00 | 0.00 | 0.00 | 33 | 1011.9 |
| 20260504011104 | 71 | 313 | 3.0 | 10.0 | 0.00 | 0.00 | 0.00 | 32 | 1012.3 |
| 20260504010603 | 72 | 331 | 3.0 | 9.0 | 0.00 | 0.00 | 0.00 | 31 | 1012.5 |
| 20260504010104 | 72 | 310 | 3.0 | 6.0 | 0.00 | 0.00 | 0.00 | 31 | 1012.5 |
| 20260504005104 | 72 | 327 | 2.0 | 7.0 | 0.00 | 0.00 | 0.00 | 35 | 1012.6 |
| 20260504004603 | 72 | 327 | 3.0 | 9.0 | 0.00 | 0.00 | 0.00 | 33 | 1012.7 |
| 20260504004104 | 72 | 324 | 4.0 | 12.0 | 0.00 | 0.00 | 0.00 | 33 | 1012.7 |
| 20260504003603 | 72 | 317 | 3.0 | 12.0 | 0.00 | 0.00 | 0.00 | 34 | 1012.8 |
| 20260504003103 | 72 | 315 | 5.0 | 12.0 | 0.00 | 0.00 | 0.00 | 34 | 1012.7 |
| 20260504002603 | 73 | 286 | 3.0 | 7.0 | 0.00 | 0.00 | 0.00 | 33 | 1012.8 |
| 20260504002103 | 73 | 292 | 3.0 | 12.0 | 0.00 | 0.00 | 0.00 | 37 | 1012.6 |
| 20260504001603 | 73 | 325 | 3.0 | 12.0 | 0.00 | 0.00 | 0.00 | 36 | 1012.6 |
| 20260504001104 | 73 | 326 | 5.0 | 13.0 | 0.00 | 0.00 | 0.00 | 37 | 1011.9 |
| 20260504000603 | 73 | 331 | 5.0 | 13.0 | 0.00 | 0.00 | 0.00 | 36 | 1011.7 |
| 20260503235104 | 73 | 284 | 6.0 | 14.0 | 0.00 | 0.00 | 0.00 | 40 | 1011.8 |
| 20260503234604 | 73 | 302 | 5.0 | 14.0 | 0.00 | 0.00 | 0.00 | 41 | 1011.8 |
| 20260503234103 | 72 | 308 | 5.0 | 13.0 | 0.00 | 0.00 | 0.00 | 40 | 1012.1 |
| 20260503233603 | 72 | 290 | 10.0 | 14.0 | 0.00 | 0.00 | 0.00 | 42 | 1012.2 |
| 20260503232603 | 71 | 296 | 10.0 | 15.0 | 0.00 | 0.00 | 0.00 | 43 | 1012.2 |
| 20260503232103 | 72 | 286 | 9.0 | 15.0 | 0.00 | 0.00 | 0.00 | 42 | 1012.3 |
| 20260503231603 | 73 | 289 | 4.0 | 14.0 | 0.00 | 0.00 | 0.00 | 43 | 1012.0 |
| 20260503231103 | 73 | 273 | 3.0 | 10.0 | 0.00 | 0.00 | 0.00 | 46 | 1012.3 |
| 20260503230603 | 72 | 333 | 5.0 | 13.0 | 0.00 | 0.00 | 0.00 | 42 | 1013.1 |
| 20260503230104 | 73 | 298 | 6.0 | 10.0 | 0.00 | 0.00 | 0.00 | 40 | 1013.0 |
| 20260503225603 | 73 | 340 | 5.0 | 9.0 | 0.00 | 0.00 | 0.00 | 40 | 1013.1 |
| 20260503225104 | 73 | 293 | 5.0 | 9.0 | 0.00 | 0.00 | 0.00 | 41 | 1013.0 |
| 20260503224103 | 73 | 296 | 6.0 | 12.0 | 0.00 | 0.00 | 0.00 | 42 | 1013.3 |
| 20260503223603 | 73 | 347 | 4.0 | 14.0 | 0.00 | 0.00 | 0.00 | 41 | 1013.3 |
| 20260503223103 | 74 | 291 | 4.0 | 10.0 | 0.00 | 0.00 | 0.00 | 41 | 1013.3 |
| 20260503222104 | 73 | 300 | 5.0 | 7.0 | 0.00 | 0.00 | 0.00 | 43 | 1013.4 |
| 20260503221603 | 74 | 303 | 5.0 | 9.0 | 0.00 | 0.00 | 0.00 | 42 | 1013.5 |
| 20260503220603 | 73 | 358 | 2.0 | 9.0 | 0.00 | 0.00 | 0.00 | 42 | 1013.1 |
| 20260503220103 | 73 | 317 | 3.0 | 9.0 | 0.00 | 0.00 | 0.00 | 42 | 1013.2 |
| 20260503215603 | 72 | 322 | 2.0 | 6.0 | 0.00 | 0.00 | 0.00 | 43 | 1013.4 |
| 20260503215104 | 72 | 302 | 2.0 | 7.0 | 0.00 | 0.00 | 0.00 | 41 | 1013.6 |
| 20260503214603 | 71 | 311 | 9.0 | 20.0 | 0.00 | 0.00 | 0.00 | 44 | 1013.6 |
| 20260503214103 | 73 | 289 | 7.0 | 15.0 | 0.00 | 0.00 | 0.00 | 40 | 1013.4 |
| 20260503213603 | 73 | 295 | 4.0 | 10.0 | 0.00 | 0.00 | 0.00 | 40 | 1013.5 |
| 20260503213104 | 73 | 6 | 2.0 | 6.0 | 0.00 | 0.00 | 0.00 | 43 | 1013.6 |
| 20260503212603 | 72 | 288 | 9.0 | 13.0 | 0.00 | 0.00 | 0.00 | 38 | 1013.8 |
| 20260503212103 | 73 | 358 | 4.0 | 10.0 | 0.00 | 0.00 | 0.00 | 42 | 1013.6 |
| 20260503211603 | 73 | 299 | 3.0 | 9.0 | 0.00 | 0.00 | 0.00 | 42 | 1013.7 |
| 20260503211103 | 73 | 321 | 2.0 | 10.0 | 0.00 | 0.00 | 0.00 | 44 | 1013.7 |
| 20260503210603 | 74 | 289 | 5.0 | 7.0 | 0.00 | 0.00 | 0.00 | 38 | 1014.0 |
| 20260503205603 | 74 | 331 | 2.0 | 7.0 | 0.00 | 0.00 | 0.00 | 42 | 1014.0 |
| 20260503205103 | 74 | 306 | 3.0 | 10.0 | 0.00 | 0.00 | 0.00 | 46 | 1014.0 |
| 20260503204603 | 74 | 342 | 3.0 | 8.0 | 0.00 | 0.00 | 0.00 | 44 | 1014.1 |
| 20260503204103 | 74 | 311 | 3.0 | 12.0 | 0.00 | 0.00 | 0.00 | 45 | 1014.1 |
| 20260503203103 | 74 | 356 | 3.0 | 7.0 | 0.00 | 0.00 | 0.00 | 44 | 1014.1 |
| 20260503202603 | 74 | 14 | 3.0 | 10.0 | 0.00 | 0.00 | 0.00 | 45 | 1014.1 |
| 20260503202103 | 74 | 341 | 2.0 | 10.0 | 0.00 | 0.00 | 0.00 | 46 | 1014.2 |
| 20260503201603 | 74 | 1 | 1.0 | 7.0 | 0.00 | 0.00 | 0.00 | 46 | 1014.1 |
| 20260503201103 | 74 | 351 | 3.0 | 7.0 | 0.00 | 0.00 | 0.00 | 43 | 1014.3 |
| 20260503200604 | 75 | 13 | 2.0 | 6.0 | 0.00 | 0.00 | 0.00 | 43 | 1014.3 |
| 20260503195103 | 74 | 322 | 3.0 | 7.0 | 0.00 | 0.00 | 0.00 | 43 | 1014.7 |
| 20260503194604 | 74 | 348 | 2.0 | 7.0 | 0.00 | 0.00 | 0.00 | 48 | 1014.5 |
| 20260503194103 | 74 | 348 | 2.0 | 6.0 | 0.00 | 0.00 | 0.00 | 49 | 1014.6 |
| 20260503193603 | 74 | 347 | 3.0 | 9.0 | 0.00 | 0.00 | 0.00 | 45 | 1014.8 |
| 20260503193104 | 74 | 344 | 2.0 | 7.0 | 0.00 | 0.00 | 0.00 | 43 | 1014.9 |
| 20260503192103 | 73 | 330 | 2.0 | 6.0 | 0.00 | 0.00 | 0.00 | 43 | 1015.0 |
| 20260503191603 | 73 | 315 | 2.0 | 6.0 | 0.00 | 0.00 | 0.00 | 46 | 1015.0 |
| 20260503191103 | 73 | 28 | 1.0 | 5.0 | 0.00 | 0.00 | 0.00 | 48 | 1014.8 |
| 20260503190603 | 72 | 332 | 2.0 | 5.0 | 0.00 | 0.00 | 0.00 | 46 | 1014.8 |
| 20260503190104 | 71 | 330 | 2.0 | 6.0 | 0.00 | 0.00 | 0.00 | 48 | 1014.9 |
| 20260503185103 | 70 | 26 | 3.0 | 6.0 | 0.00 | 0.00 | 0.00 | 47 | 1015.2 |
| 20260503184604 | 69 | 354 | 3.0 | 12.0 | 0.00 | 0.00 | 0.00 | 51 | 1015.2 |
| 20260503183604 | 69 | 288 | 3.0 | 7.0 | 0.00 | 0.00 | 0.00 | 51 | 1015.3 |
| 20260503183104 | 69 | 270 | 4.0 | 7.0 | 0.00 | 0.00 | 0.00 | 49 | 1015.3 |
| 20260503182603 | 68 | 304 | 2.0 | 5.0 | 0.00 | 0.00 | 0.00 | 51 | 1015.6 |
| 20260503182103 | 69 | 270 | 6.0 | 8.0 | 0.00 | 0.00 | 0.00 | 47 | 1015.5 |
| 20260503181603 | 70 | 163 | 1.0 | 3.0 | 0.00 | 0.00 | 0.00 | 50 | 1015.5 |
| 20260503181104 | 70 | 115 | 0.0 | 1.0 | 0.00 | 0.00 | 0.00 | 52 | 1015.3 |
| 20260503180603 | 69 | 115 | 1.0 | 3.0 | 0.00 | 0.00 | 0.00 | 49 | 1014.8 |
| 20260503180103 | 68 | 115 | 1.0 | 3.0 | 0.00 | 0.00 | 0.00 | 55 | 1015.1 |
| 20260503175603 | 68 | 112 | 1.0 | 3.0 | 0.00 | 0.00 | 0.00 | 55 | 1015.2 |
| 20260503175103 | 68 | 100 | 2.0 | 3.0 | 0.00 | 0.00 | 0.00 | 56 | 1015.1 |
| 20260503174603 | 67 | 92 | 3.0 | 6.0 | 0.00 | 0.00 | 0.00 | 52 | 1015.2 |
| 20260503174103 | 67 | 95 | 5.0 | 7.0 | 0.00 | 0.00 | 0.00 | 55 | 1015.2 |
| 20260503173103 | 67 | 88 | 2.0 | 3.0 | 0.00 | 0.00 | 0.00 | 53 | 1015.3 |
| 20260503172603 | 67 | 88 | 3.0 | 3.0 | 0.00 | 0.00 | 0.00 | 54 | 1015.3 |
| 20260503172103 | 66 | 97 | 2.0 | 3.0 | 0.00 | 0.00 | 0.00 | 53 | 1015.6 |
| 20260503171603 | 66 | 100 | 3.0 | 5.0 | 0.00 | 0.00 | 0.00 | 56 | 1015.6 |
| 20260503171104 | 66 | 81 | 2.0 | 3.0 | 0.00 | 0.00 | 0.00 | 55 | 1015.5 |
| 20260503170603 | 65 | 81 | 2.0 | 5.0 | 0.00 | 0.00 | 0.00 | 57 | 1015.3 |
| 20260503170103 | 65 | 88 | 2.0 | 6.0 | 0.00 | 0.00 | 0.00 | 59 | 1015.4 |
| 20260503160103 | 62 | 99 | 4.0 | 6.0 | 0.00 | 0.00 | 0.00 | 60 | 1015.5 |
| 20260503150603 | 61 | 144 | 2.0 | 3.0 | 0.00 | 0.00 | 0.00 | 60 | 1015.5 |
| 20260503150103 | 61 | 146 | 2.0 | 3.0 | 0.00 | 0.00 | 0.00 | 59 | 1015.5 |
| 20260503131103 | 46 | 240 | 3.0 | 3.0 | 0.00 | 0.00 | 0.00 | 77 | 1016.2 |
| 20260503130604 | 46 | 251 | 2.0 | 3.0 | 0.00 | 0.00 | 0.00 | 76 | 1016.0 |